Flag for India Weather past 2 weeks in Kathua, Jammu and Kashmir, India

Now
86 °F

Fog.


Feels Like: 99 °F
Forecast: 69 / 91 °F
Wind: 5 mph from South

Location: Amritsar Airport

Current Time: Sep 23, 2014 at 10:45:36 AM

Latest Report: Sep 23, 2014 at 10:00 AM


Visibility: 2 mi

Pressure: 29.71 "Hg

Humidity: 79%

Dew point: 79 °F

Location of KathuaLocation

Historic Weather in Kathua — Graph

°F

Kathua temperature yesterday

Maximum temperature yesterday: 91 °F (at 1:30 PM)
Minimum temperature yesterday: 75 °F (at 3:30 AM)
Average temperature yesterday: 82 °F

Past Weeks' High & Low Weather Summary

 TemperatureHumidityPressure
High95 °F (Sep 18, 3:00 PM)100% (Sep 8, 8:00 PM)29.80 "Hg (Sep 8, 8:00 PM)
Low72 °F (Sep 17, 6:00 AM)46% (Sep 21, 1:30 PM)29.59 "Hg (Sep 9, 4:30 PM)
Average83 °F83%29.68 "Hg
* Reported Sep 8 8:30 AM — Sep 23 8:30 AM, Kathua, Weather by CustomWeather, © 2014

Note: Actual official high and low records may vary slightly from our data, if they occured in-between our weather recording intervals... More about our weather records

Advertising

Kathua weather history for previous 24 hours

 ConditionsComfort  
Time TempWeatherWind HumidityBarometerVisibility
8:30 AM
Sep 23
81 °FFog.3 mph100%29.71 "Hg1 mi
8:00 AM79 °FFog.No wind100%29.71 "Hg1 mi
7:30 AM77 °FFog.No wind100%29.71 "Hg1 mi
7:00 AM77 °FFog.No wind100%29.68 "Hg1 mi
6:30 AM77 °FFog.No wind100%29.68 "Hg1 mi
6:00 AM75 °FFog.No wind100%29.68 "Hg1 mi
5:30 AM77 °FFog.No wind100%29.68 "Hg1 mi
5:00 AM77 °FFog.No wind100%29.68 "Hg1 mi
4:30 AM79 °FFog.No wind100%29.68 "Hg1 mi
4:00 AM77 °FFog.No wind100%29.68 "Hg1 mi
3:30 AM77 °FFog.No wind100%29.68 "Hg1 mi
3:00 AM77 °FFog.No wind100%29.68 "Hg1 mi
2:30 AM77 °FFog.No wind100%29.68 "Hg1 mi
2:00 AM79 °FFog.No wind94%29.68 "Hg1 mi
1:30 AM79 °FFog.No wind100%29.71 "Hg1 mi
1:00 AM79 °FFog.No wind100%29.71 "Hg1 mi
12:30 AM79 °FFog.No wind100%29.71 "Hg1 mi
11:30 PM
Sep 22
81 °FFog.No wind94%29.71 "Hg1 mi
11:00 PM81 °FFog.No wind94%29.71 "Hg2 mi
10:30 PM81 °FFog.No wind89%29.71 "Hg2 mi
10:00 PM81 °FFog.No wind94%29.71 "Hg2 mi
9:30 PM82 °FFog.No wind89%29.71 "Hg2 mi
9:00 PM82 °FFog.No wind89%29.71 "Hg2 mi
8:30 PM82 °FFog.No wind89%29.71 "Hg2 mi
8:00 PM84 °FFog.No wind84%29.68 "Hg2 mi
7:30 PM84 °FFog.No wind84%29.68 "Hg3 mi
6:30 PM88 °FHaze.No wind66%29.68 "Hg3 mi
6:00 PM88 °FHaze.No wind66%29.65 "Hg3 mi
5:30 PM90 °FHaze.No wind63%29.65 "Hg3 mi
5:00 PM90 °FHaze.No wind63%29.65 "Hg3 mi
4:30 PM90 °FHaze.1 mph59%29.65 "Hg3 mi
4:00 PM91 °FHaze.2 mph56%29.65 "Hg3 mi
3:00 PM91 °FPassing clouds.2 mph63%29.68 "Hg4 mi
2:30 PM91 °FPassing clouds.5 mph59%29.68 "Hg4 mi
2:00 PM91 °FPassing clouds.2 mph56%29.68 "Hg4 mi
1:30 PM91 °FPassing clouds.1 mph56%29.71 "Hg4 mi
12:00 PM90 °FHaze.1 mph71%29.74 "Hg2 mi
11:30 AM88 °FHaze.2 mph70%29.74 "Hg2 mi
10:00 AM86 °FHaze.No wind70%29.74 "Hg2 mi
Weather by CustomWeather, © 2014

See weather overviewHow to use our weather pages